SCP
0 0 0 -0 -0 -0 -0 -0 -0 -0 -0 -0 -0 -0 0 0 0 0 0 0 0 0 0 0 0 0 0 0 -0 0 -0 0 0 0 -0 -0 -0 -0 -0 -0 -1 -1 -1 -0 -0
0 0 0 -0 -0 -0 -0 -0 -0 -0 -0 -0 -0 0 0 0 0 0 0 -0 0 -0 0 0 0 0 0 0 0 0 -0 -0 -0 -0 -0 -0 0 -0 -0 -0 -0 -0 -0 -0 -0
0 0 0 0 -0 -0 -0 -0 -0 -0 -0 -0 0 0 0 -0 0 0 0 0 -0 -0 0 0 0 0 0 0 0 0 0 0 -0 -0 -0 -0 0 -0 0 -0 -0 -0 -0 -0 -0
0 0 0 0 0 -0 -0 -0 -0 -0 -0 -0 0 0 0 -0 0 0 0 0 -0 0 0 0 0 0 0 0 -0 -0 -0 0 0 -0 -0 -0 0 0 0 -0 -0 -0 0 0 0
0 0 0 0 0 0 -0 -0 -0 -0 -0 -0 0 0 0 0 0 0 0 0 0 0 0 0 0 0 0 -0 0 0 -0 0 0 -0 -0 -0 0 -0 0 0 -0 -0 0 0 0
0 0 0 0 0 0 -0 -0 -0 -0 -0 -0 0 -0 0 0 0 0 0 0 0 0 0 0 0 0 0 0 0 -0 0 0 0 -0 0 -0 -0 -0 -0 -0 -0 -0 0 0 0
0 0 0 0 -0 -0 -0 -0 -0 0 0 0 0 -0 0 0 0 0 0 0 0 0 0 0 0 0 0 0 0 -0 0 0 -0 0 0 0 0 -0 -0 -0 -0 0 0 0 0
0 0 0 0 -0 -0 -0 -0 -0 0 0 0 0 0 0 0 0 0 0 0 0 0 0 0 0 0 0 0 0 0 -0 0 0 0 -0 0 -0 -0 -0 0 0 0 0 0 0
0 0 0 0 -0 -0 -0 -0 -0 0 0 0 0 0 0 0 0 0 0 0 0 0 0 0 0 0 0 0 0 0 0 0 -0 -0 -0 0 0 -0 0 0 0 0 0 0 0
0 0 0 0 -0 -0 -0 -0 0 0 0 0 0 0 -0 0 -0 0 0 0 0 0 0 0 0 0 0 0 0 -0 0 0 -0 -0 0 0 0 -0 -0 0 0 0 0 0 0
0 0 0 0 0 -0 0 0 0 0 0 0 0 0 -0 0 0 0 0 0 0 0 0 0 0 0 -0 0 -0 -0 -0 -0 -0 0 -0 0 0 -0 -0 -0 0 0 0 0 0
0 0 0 0 0 -0 0 0 0 0 0 0 0 0 0 0 0 0 0 0 0 0 0 0 0 0 -0 0 -0 -0 -0 -0 0 0 0 0 0 0 -0 0 0 0 0 0 0
0 0 0 0 0 0 0 0 0 0 0 0 0 0 0 0 0 0 0 -0 0 0 0 0 0 -0 -0 -0 -0 -0 0 0 -0 0 0 0 -0 0 0 -0 0 0 0 0 0
0 0 0 0 0 0 0 0 0 0 0 0 0 0 0 0 0 0 0 -0 0 0 0 0 0 -0 -0 -0 -0 -0 -0 0 -0 0 -0 0 0 -0 0 -0 0 0 0 0 0
0 0 0 0 0 0 0 0 0 0 0 0 0 -0 0 0 0 0 0 0 0 0 0 0 0 -0 -0 0 0 -0 0 -0 -0 -0 0 -0 -0 0 0 -0 0 0 0 0 0
0 0 0 0 0 0 0 0 0 0 0 0 0 0 0 0 0 0 0 0 0 0 0 0 0 0 0 0 0 0 -0 -0 -0 -0 -0 0 0 0 0 -0 0 0 0 0 0
0 0 0 0 0 0 0 0 0 0 0 0 0 0 0 0 -0 0 0 0 -0 0 0 0 0 0 0 0 0 0 0 -0 -0 0 0 0 0 0 0 0 0 0 0 0 0
0 0 0 0 0 0 0 0 0 0 -0 0 0 0 0 0 0 0 0 0 -0 0 0 0 0 0 0 -0 -0 -0 -0 -0 0 0 0 0 0 0 -0 0 0 0 0 0 0
0 0 0 0 0 0 0 0 0 0 0 0 0 0 0 0 -0 0 0 0 0 0 0 0 0 -0 0 0 0 0 -0 -0 0 -0 -0 0 0 1 0 0 0 0 1 0 0
0 0 0 0 0 0 0 0 0 0 0 0 0 0 0 -0 0 0 0 0 -0 0 0 0 0 -0 0 0 -0 -0 -0 0 0 0 0 -0 0 0 -0 0 0 1 1 0 0
0 0 0 0 0 0 0 0 0 0 0 0 0 -0 -0 -0 0 0 0 0 0 -0 0 0 0 -0 0 0 0 -0 -0 -0 0 0 0 -0 0 0 0 0 0 1 1 0 0
0 0 0 0 0 0 0 0 0 0 0 0 0 0 0 0 0 0 -0 0 0 0 0 -0 0 0 0 -0 -0 -0 -0 -0 -0 0 0 0 0 0 0 0 1 1 0 0 0
0 0 0 0 0 0 0 0 0 0 0 0 0 0 0 0 0 0 0 0 0 0 0 0 0 0 0 0 0 0 -0 0 0 0 -0 -0 0 0 0 1 0 0 0 0 0
0 0 0 0 0 0 0 0 0 0 0 0 0 0 0 0 0 0 0 0 0 0 0 0 0 0 -0 0 0 0 0 -0 0 0 0 0 0 0 0 0 0 0 0 0 0
0 0 0 0 0 0 0 0 0 0 0 0 0 0 0 0 -0 0 0 -0 0 0 0 0 0 0 0 0 0 0 0 0 -0 0 0 0 0 -0 0 0 0 0 0 0 0
0 0 0 0 0 0 0 0 0 0 0 0 0 0 0 0 0 0 0 0 0 0 0 0 0 0 0 0 0 0 -0 0 0 0 0 0 0 0 0 0 0 0 0 0 0
0 0 0 0 0 0 0 0 0 0 0 0 0 0 0 0 0 0 0 0 0 0 0 0 0 0 -0 0 0 0 0 0 0 0 0 0 0 0 0 0 0 0 0 0 0
Wind_Speed_500mb
36 39 39 38 38 38 39 42 43 45 48 50 47 42 32 18 12 14 21 22 21 20 28 21 22 24 24 33 34 36 15 16 39 23 19 43 34 38 33 45 47 52 50 44 37
34 39 41 41 39 39 38 43 42 45 47 47 46 38 27 20 18 23 19 28 30 25 28 27 25 23 27 27 32 16 15 27 31 27 30 38 30 35 37 39 42 44 41 39 35
34 37 43 42 41 40 39 42 42 45 46 45 41 32 26 20 9 25 34 28 29 29 24 23 22 23 32 37 10 26 13 15 40 42 36 29 18 84 14 29 33 38 39 35 29
34 35 42 44 42 39 40 41 43 44 44 44 34 29 25 13 5 13 19 24 30 31 24 28 31 29 34 27 55 20 56 5 33 30 32 27 24 39 32 41 33 35 34 31 31
32 36 38 45 43 41 40 41 41 41 41 39 26 24 23 16 23 6 17 31 28 39 26 33 33 34 34 23 11 11 21 28 20 29 31 29 29 27 31 33 35 36 32 31 29
33 34 38 42 44 40 39 41 40 40 38 35 23 21 18 25 4 9 19 28 30 38 23 33 27 21 28 16 12 42 16 25 19 26 20 31 31 23 28 33 36 35 33 32 32
34 34 37 39 44 39 39 39 39 39 36 28 18 19 17 23 9 17 23 26 32 29 30 33 14 15 27 7 12 22 19 21 21 21 21 33 19 25 31 33 35 35 33 33 30
32 36 35 38 40 40 38 37 37 36 31 21 14 17 17 17 16 21 26 25 22 29 31 24 16 23 34 8 19 18 17 10 37 13 23 24 17 26 35 34 35 35 35 35 30
32 35 36 36 38 37 35 35 31 30 22 14 10 11 27 18 22 25 32 32 27 28 22 15 15 30 19 18 16 20 16 40 37 61 35 20 10 39 36 34 35 35 35 35 33
33 34 37 34 34 35 33 29 24 24 13 13 19 17 32 26 26 28 32 30 31 27 21 24 18 21 23 23 25 30 22 19 44 38 50 28 14 36 41 36 38 38 39 39 41
34 35 34 33 28 25 26 21 16 4 18 31 10 23 9 13 25 27 35 35 37 35 30 40 26 31 39 34 38 23 12 33 47 54 68 10 16 39 48 40 42 44 44 43 42
35 34 32 29 23 14 18 15 11 17 25 38 43 38 13 16 21 31 39 37 39 32 37 26 36 38 40 36 37 42 39 28 10 24 11 10 24 31 48 48 47 42 44 50 46
35 35 31 24 14 7 13 9 16 22 17 37 48 45 38 26 36 39 50 49 41 35 41 39 38 40 44 41 37 34 35 24 37 20 15 18 29 28 47 53 45 43 40 54 52
32 32 29 20 6 14 12 10 18 15 11 25 39 41 46 34 36 39 52 53 29 38 36 39 45 48 45 46 41 34 33 25 36 34 26 10 26 37 37 36 37 48 45 50 51
30 30 23 18 21 11 9 19 21 9 12 36 38 33 43 46 26 39 49 53 40 33 38 41 44 40 39 47 32 30 28 36 34 33 38 32 22 12 29 35 41 46 52 55 55
32 31 26 8 25 18 25 24 16 12 15 18 24 27 37 42 39 42 50 55 43 35 32 35 32 38 18 25 21 32 37 29 23 31 27 17 4 13 20 42 38 46 52 63 57
32 31 30 27 20 6 19 20 12 20 16 22 32 37 42 32 37 37 43 46 39 28 29 34 39 9 11 25 38 37 26 19 23 20 7 5 18 14 57 32 42 42 65 64 59
33 35 28 32 25 19 18 17 18 29 41 23 25 39 37 38 38 43 38 37 48 40 25 30 27 36 28 35 35 25 29 22 17 17 25 36 16 11 24 11 39 48 68 65 58
32 30 32 22 19 19 23 21 19 15 4 15 13 29 32 40 32 33 37 40 44 41 34 26 39 34 41 35 31 32 34 36 32 31 31 8 8 11 33 9 33 61 61 63 66
28 26 36 22 25 20 19 35 39 17 16 5 20 21 28 37 37 38 40 44 43 48 41 38 30 37 39 34 39 38 26 22 15 32 26 24 12 13 38 24 23 45 54 47 68
22 11 2 24 18 28 22 37 36 21 8 10 25 32 34 32 36 37 34 30 45 47 44 42 28 40 38 26 32 28 26 24 21 8 21 10 7 10 8 26 23 40 43 46 48
12 8 16 22 22 29 27 36 45 18 10 16 20 28 24 24 34 35 38 34 39 43 46 42 13 25 25 39 36 34 21 30 19 15 21 26 10 13 13 17 29 35 44 45 42
12 28 19 21 17 25 35 45 49 19 28 18 21 21 22 23 9 20 35 33 28 29 33 28 19 18 31 19 24 28 26 23 12 7 24 21 9 2 7 23 28 40 46 47 45
12 6 23 30 45 38 28 38 42 20 32 29 19 25 20 19 15 15 29 13 12 15 35 35 20 22 25 25 18 38 34 32 21 13 14 6 22 11 11 18 27 41 50 45 44
13 12 26 13 29 33 35 40 37 28 34 32 22 27 26 18 26 25 28 28 16 17 16 23 22 30 39 37 27 34 34 39 37 20 12 10 4 33 23 22 28 38 40 42 43
10 9 25 44 38 36 33 31 33 38 29 31 28 29 31 22 21 27 21 12 24 24 21 21 16 26 38 29 29 18 25 12 8 16 10 9 17 25 27 34 33 39 39 42 41
15 24 19 30 26 20 31 31 28 29 33 30 35 31 21 8 22 29 27 22 23 18 20 17 19 22 33 38 26 24 26 24 15 5 2 7 21 22 12 23 32 39 40 41 38
Wind_Direction_500mb
305 307 312 318 321 321 321 321 325 325 330 335 335 332 328 317 280 231 216 213 237 220 199 194 208 243 253 252 250 270 269 305 110 110 137 93 99 91 96 77 74 78 108 123 125
299 304 308 313 318 320 319 317 323 324 328 335 334 330 324 310 271 228 228 218 227 208 190 195 212 226 245 256 239 11 50 284 124 130 91 92 114 128 109 106 100 102 116 127 134
297 302 305 309 315 317 317 316 320 323 328 335 332 323 318 313 267 233 211 231 221 203 187 205 212 220 237 237 214 5 189 82 98 100 99 111 126 96 312 127 129 127 134 141 162
295 299 303 306 311 315 314 316 319 322 327 332 327 319 315 289 327 166 204 205 201 182 211 211 222 219 250 235 128 165 232 164 105 107 118 100 92 75 99 105 123 129 137 143 143
295 298 299 305 310 315 314 313 316 319 323 327 320 315 313 271 257 210 183 190 187 179 213 206 224 222 251 237 215 242 133 107 123 130 113 135 109 104 107 121 128 134 142 148 126
298 298 300 302 310 313 312 311 312 314 316 320 312 312 305 259 166 166 187 182 184 180 218 207 214 244 295 246 210 150 133 141 158 114 146 104 120 118 131 135 139 148 152 138 135
297 300 301 303 306 313 310 309 308 309 312 310 299 302 277 249 192 173 179 182 177 203 214 209 256 275 287 219 124 217 178 157 153 160 133 157 158 138 155 153 155 154 152 145 146
299 301 302 304 307 313 311 309 306 304 303 293 283 293 261 194 200 191 189 191 196 206 221 214 241 263 275 219 240 180 203 174 355 255 168 201 178 144 166 164 162 163 157 156 155
303 303 304 306 309 314 313 308 302 299 294 276 261 255 249 228 205 200 191 189 189 204 220 200 218 236 271 184 198 231 132 79 328 304 297 141 156 163 181 178 172 173 169 167 163
307 307 306 310 312 319 323 308 298 287 283 255 230 261 232 217 195 187 188 190 187 193 203 218 218 233 228 211 207 237 58 183 189 244 268 193 184 161 174 192 185 186 181 182 168
310 309 309 311 315 327 348 355 291 246 234 235 196 227 154 149 163 188 186 187 185 202 207 203 207 212 210 230 247 280 239 207 188 199 234 198 213 162 168 198 210 190 191 180 161
308 312 311 311 313 331 327 341 11 323 297 257 246 245 198 169 187 194 183 191 190 202 212 189 218 224 234 226 246 271 278 265 103 147 201 260 239 189 171 192 208 201 197 170 166
306 312 316 311 309 2 326 299 329 323 266 275 223 217 205 205 216 197 187 198 191 209 208 222 214 227 246 238 232 246 265 282 278 155 207 252 262 252 179 178 201 213 195 169 170
305 312 323 315 294 298 294 308 328 318 274 227 198 213 207 199 224 200 196 199 193 204 227 234 234 205 232 250 238 243 248 251 273 287 276 289 256 269 167 175 191 208 178 173 172
307 310 314 330 294 299 340 315 314 293 274 151 182 210 196 189 188 197 194 210 238 209 201 225 224 239 228 238 241 256 265 266 264 259 267 262 269 12 178 188 194 203 192 177 171
302 304 304 335 293 275 304 300 303 237 248 155 145 181 175 199 215 188 186 210 225 243 241 253 225 239 238 290 277 264 253 253 275 274 266 341 58 289 216 198 192 194 166 164 169
296 292 289 286 240 274 316 292 228 236 158 159 180 188 195 190 204 177 189 200 219 227 225 230 249 184 222 236 249 249 247 246 245 243 277 277 317 233 259 190 188 185 157 160 158
288 287 283 272 256 281 293 255 243 228 246 145 183 179 195 190 213 186 190 203 215 222 231 219 216 234 183 237 233 234 236 244 239 233 243 193 244 181 183 132 168 169 145 151 152
293 287 281 266 258 247 248 226 219 272 208 147 243 188 193 196 206 181 200 211 209 222 229 234 231 244 207 215 228 219 235 237 259 270 284 157 274 61 25 329 141 142 149 159 154
303 293 276 218 205 214 232 245 241 357 338 340 218 222 200 203 196 200 196 201 217 206 230 252 270 266 184 205 226 241 212 251 250 265 293 330 6 298 202 179 168 143 151 157 154
302 275 282 166 192 220 230 235 240 276 299 267 270 298 230 193 210 224 214 207 205 205 200 237 257 278 176 193 214 232 245 245 260 178 257 247 143 263 323 150 168 150 158 166 159
279 255 176 187 210 227 231 239 261 271 212 254 283 288 306 273 191 218 228 220 193 216 196 215 241 258 242 198 198 240 258 241 256 278 23 305 31 11 36 137 154 153 164 165 157
262 256 260 209 227 231 229 252 252 220 247 238 249 255 293 292 276 237 236 208 184 197 218 194 231 256 265 180 213 223 245 272 121 78 293 288 126 112 124 139 165 165 166 153 160
274 264 231 222 239 260 258 227 246 216 257 256 262 295 268 249 276 280 234 213 154 227 225 188 208 233 254 185 287 208 226 250 258 214 243 81 49 274 199 149 172 169 160 165 167
235 256 301 246 222 238 254 268 227 227 213 235 253 254 253 236 235 226 261 222 170 163 205 192 229 228 253 263 271 273 206 224 244 243 252 298 342 196 155 160 173 159 160 165 170
290 337 324 298 279 217 239 250 245 229 216 214 233 234 236 259 272 321 248 343 187 177 214 182 204 246 258 245 252 167 247 226 233 272 303 314 49 101 130 148 164 162 172 174 178
260 294 289 286 277 260 223 232 257 241 220 239 217 244 272 4 350 322 315 307 307 245 192 200 201 241 244 256 227 239 225 215 211 246 329 325 103 116 136 154 165 165 179 179 183
Wind_Speed_850mb
36 39 39 38 38 38 39 42 43 45 48 50 47 42 32 18 12 14 21 22 21 20 28 21 22 24 24 33 34 36 15 16 39 23 19 43 34 38 33 45 47 52 50 44 37
34 39 41 41 39 39 38 43 42 45 47 47 46 38 27 20 18 23 19 28 30 25 28 27 25 23 27 27 32 16 15 27 31 27 30 38 30 35 37 39 42 44 41 39 35
34 37 43 42 41 40 39 42 42 45 46 45 41 32 26 20 9 25 34 28 29 29 24 23 22 23 32 37 10 26 13 15 40 42 36 29 18 84 14 29 33 38 39 35 29
34 35 42 44 42 39 40 41 43 44 44 44 34 29 25 13 5 13 19 24 30 31 24 28 31 29 34 27 55 20 56 5 33 30 32 27 24 39 32 41 33 35 34 31 31
32 36 38 45 43 41 40 41 41 41 41 39 26 24 23 16 23 6 17 31 28 39 26 33 33 34 34 23 11 11 21 28 20 29 31 29 29 27 31 33 35 36 32 31 29
33 34 38 42 44 40 39 41 40 40 38 35 23 21 18 25 4 9 19 28 30 38 23 33 27 21 28 16 12 42 16 25 19 26 20 31 31 23 28 33 36 35 33 32 32
34 34 37 39 44 39 39 39 39 39 36 28 18 19 17 23 9 17 23 26 32 29 30 33 14 15 27 7 12 22 19 21 21 21 21 33 19 25 31 33 35 35 33 33 30
32 36 35 38 40 40 38 37 37 36 31 21 14 17 17 17 16 21 26 25 22 29 31 24 16 23 34 8 19 18 17 10 37 13 23 24 17 26 35 34 35 35 35 35 30
32 35 36 36 38 37 35 35 31 30 22 14 10 11 27 18 22 25 32 32 27 28 22 15 15 30 19 18 16 20 16 40 37 61 35 20 10 39 36 34 35 35 35 35 33
33 34 37 34 34 35 33 29 24 24 13 13 19 17 32 26 26 28 32 30 31 27 21 24 18 21 23 23 25 30 22 19 44 38 50 28 14 36 41 36 38 38 39 39 41
34 35 34 33 28 25 26 21 16 4 18 31 10 23 9 13 25 27 35 35 37 35 30 40 26 31 39 34 38 23 12 33 47 54 68 10 16 39 48 40 42 44 44 43 42
35 34 32 29 23 14 18 15 11 17 25 38 43 38 13 16 21 31 39 37 39 32 37 26 36 38 40 36 37 42 39 28 10 24 11 10 24 31 48 48 47 42 44 50 46
35 35 31 24 14 7 13 9 16 22 17 37 48 45 38 26 36 39 50 49 41 35 41 39 38 40 44 41 37 34 35 24 37 20 15 18 29 28 47 53 45 43 40 54 52
32 32 29 20 6 14 12 10 18 15 11 25 39 41 46 34 36 39 52 53 29 38 36 39 45 48 45 46 41 34 33 25 36 34 26 10 26 37 37 36 37 48 45 50 51
30 30 23 18 21 11 9 19 21 9 12 36 38 33 43 46 26 39 49 53 40 33 38 41 44 40 39 47 32 30 28 36 34 33 38 32 22 12 29 35 41 46 52 55 55
32 31 26 8 25 18 25 24 16 12 15 18 24 27 37 42 39 42 50 55 43 35 32 35 32 38 18 25 21 32 37 29 23 31 27 17 4 13 20 42 38 46 52 63 57
32 31 30 27 20 6 19 20 12 20 16 22 32 37 42 32 37 37 43 46 39 28 29 34 39 9 11 25 38 37 26 19 23 20 7 5 18 14 57 32 42 42 65 64 59
33 35 28 32 25 19 18 17 18 29 41 23 25 39 37 38 38 43 38 37 48 40 25 30 27 36 28 35 35 25 29 22 17 17 25 36 16 11 24 11 39 48 68 65 58
32 30 32 22 19 19 23 21 19 15 4 15 13 29 32 40 32 33 37 40 44 41 34 26 39 34 41 35 31 32 34 36 32 31 31 8 8 11 33 9 33 61 61 63 66
28 26 36 22 25 20 19 35 39 17 16 5 20 21 28 37 37 38 40 44 43 48 41 38 30 37 39 34 39 38 26 22 15 32 26 24 12 13 38 24 23 45 54 47 68
22 11 2 24 18 28 22 37 36 21 8 10 25 32 34 32 36 37 34 30 45 47 44 42 28 40 38 26 32 28 26 24 21 8 21 10 7 10 8 26 23 40 43 46 48
12 8 16 22 22 29 27 36 45 18 10 16 20 28 24 24 34 35 38 34 39 43 46 42 13 25 25 39 36 34 21 30 19 15 21 26 10 13 13 17 29 35 44 45 42
12 28 19 21 17 25 35 45 49 19 28 18 21 21 22 23 9 20 35 33 28 29 33 28 19 18 31 19 24 28 26 23 12 7 24 21 9 2 7 23 28 40 46 47 45
12 6 23 30 45 38 28 38 42 20 32 29 19 25 20 19 15 15 29 13 12 15 35 35 20 22 25 25 18 38 34 32 21 13 14 6 22 11 11 18 27 41 50 45 44
13 12 26 13 29 33 35 40 37 28 34 32 22 27 26 18 26 25 28 28 16 17 16 23 22 30 39 37 27 34 34 39 37 20 12 10 4 33 23 22 28 38 40 42 43
10 9 25 44 38 36 33 31 33 38 29 31 28 29 31 22 21 27 21 12 24 24 21 21 16 26 38 29 29 18 25 12 8 16 10 9 17 25 27 34 33 39 39 42 41
15 24 19 30 26 20 31 31 28 29 33 30 35 31 21 8 22 29 27 22 23 18 20 17 19 22 33 38 26 24 26 24 15 5 2 7 21 22 12 23 32 39 40 41 38
Wind_Direction_850mb
305 307 312 318 321 321 321 321 325 325 330 335 335 332 328 317 280 231 216 213 237 220 199 194 208 243 253 252 250 270 269 305 110 110 137 93 99 91 96 77 74 78 108 123 125
299 304 308 313 318 320 319 317 323 324 328 335 334 330 324 310 271 228 228 218 227 208 190 195 212 226 245 256 239 11 50 284 124 130 91 92 114 128 109 106 100 102 116 127 134
297 302 305 309 315 317 317 316 320 323 328 335 332 323 318 313 267 233 211 231 221 203 187 205 212 220 237 237 214 5 189 82 98 100 99 111 126 96 312 127 129 127 134 141 162
295 299 303 306 311 315 314 316 319 322 327 332 327 319 315 289 327 166 204 205 201 182 211 211 222 219 250 235 128 165 232 164 105 107 118 100 92 75 99 105 123 129 137 143 143
295 298 299 305 310 315 314 313 316 319 323 327 320 315 313 271 257 210 183 190 187 179 213 206 224 222 251 237 215 242 133 107 123 130 113 135 109 104 107 121 128 134 142 148 126
298 298 300 302 310 313 312 311 312 314 316 320 312 312 305 259 166 166 187 182 184 180 218 207 214 244 295 246 210 150 133 141 158 114 146 104 120 118 131 135 139 148 152 138 135
297 300 301 303 306 313 310 309 308 309 312 310 299 302 277 249 192 173 179 182 177 203 214 209 256 275 287 219 124 217 178 157 153 160 133 157 158 138 155 153 155 154 152 145 146
299 301 302 304 307 313 311 309 306 304 303 293 283 293 261 194 200 191 189 191 196 206 221 214 241 263 275 219 240 180 203 174 355 255 168 201 178 144 166 164 162 163 157 156 155
303 303 304 306 309 314 313 308 302 299 294 276 261 255 249 228 205 200 191 189 189 204 220 200 218 236 271 184 198 231 132 79 328 304 297 141 156 163 181 178 172 173 169 167 163
307 307 306 310 312 319 323 308 298 287 283 255 230 261 232 217 195 187 188 190 187 193 203 218 218 233 228 211 207 237 58 183 189 244 268 193 184 161 174 192 185 186 181 182 168
310 309 309 311 315 327 348 355 291 246 234 235 196 227 154 149 163 188 186 187 185 202 207 203 207 212 210 230 247 280 239 207 188 199 234 198 213 162 168 198 210 190 191 180 161
308 312 311 311 313 331 327 341 11 323 297 257 246 245 198 169 187 194 183 191 190 202 212 189 218 224 234 226 246 271 278 265 103 147 201 260 239 189 171 192 208 201 197 170 166
306 312 316 311 309 2 326 299 329 323 266 275 223 217 205 205 216 197 187 198 191 209 208 222 214 227 246 238 232 246 265 282 278 155 207 252 262 252 179 178 201 213 195 169 170
305 312 323 315 294 298 294 308 328 318 274 227 198 213 207 199 224 200 196 199 193 204 227 234 234 205 232 250 238 243 248 251 273 287 276 289 256 269 167 175 191 208 178 173 172
307 310 314 330 294 299 340 315 314 293 274 151 182 210 196 189 188 197 194 210 238 209 201 225 224 239 228 238 241 256 265 266 264 259 267 262 269 12 178 188 194 203 192 177 171
302 304 304 335 293 275 304 300 303 237 248 155 145 181 175 199 215 188 186 210 225 243 241 253 225 239 238 290 277 264 253 253 275 274 266 341 58 289 216 198 192 194 166 164 169
296 292 289 286 240 274 316 292 228 236 158 159 180 188 195 190 204 177 189 200 219 227 225 230 249 184 222 236 249 249 247 246 245 243 277 277 317 233 259 190 188 185 157 160 158
288 287 283 272 256 281 293 255 243 228 246 145 183 179 195 190 213 186 190 203 215 222 231 219 216 234 183 237 233 234 236 244 239 233 243 193 244 181 183 132 168 169 145 151 152
293 287 281 266 258 247 248 226 219 272 208 147 243 188 193 196 206 181 200 211 209 222 229 234 231 244 207 215 228 219 235 237 259 270 284 157 274 61 25 329 141 142 149 159 154
303 293 276 218 205 214 232 245 241 357 338 340 218 222 200 203 196 200 196 201 217 206 230 252 270 266 184 205 226 241 212 251 250 265 293 330 6 298 202 179 168 143 151 157 154
302 275 282 166 192 220 230 235 240 276 299 267 270 298 230 193 210 224 214 207 205 205 200 237 257 278 176 193 214 232 245 245 260 178 257 247 143 263 323 150 168 150 158 166 159
279 255 176 187 210 227 231 239 261 271 212 254 283 288 306 273 191 218 228 220 193 216 196 215 241 258 242 198 198 240 258 241 256 278 23 305 31 11 36 137 154 153 164 165 157
262 256 260 209 227 231 229 252 252 220 247 238 249 255 293 292 276 237 236 208 184 197 218 194 231 256 265 180 213 223 245 272 121 78 293 288 126 112 124 139 165 165 166 153 160
274 264 231 222 239 260 258 227 246 216 257 256 262 295 268 249 276 280 234 213 154 227 225 188 208 233 254 185 287 208 226 250 258 214 243 81 49 274 199 149 172 169 160 165 167
235 256 301 246 222 238 254 268 227 227 213 235 253 254 253 236 235 226 261 222 170 163 205 192 229 228 253 263 271 273 206 224 244 243 252 298 342 196 155 160 173 159 160 165 170
290 337 324 298 279 217 239 250 245 229 216 214 233 234 236 259 272 321 248 343 187 177 214 182 204 246 258 245 252 167 247 226 233 272 303 314 49 101 130 148 164 162 172 174 178
260 294 289 286 277 260 223 232 257 241 220 239 217 244 272 4 350 322 315 307 307 245 192 200 201 241 244 256 227 239 225 215 211 246 329 325 103 116 136 154 165 165 179 179 183